CAL111 RJFF-RCTP

Flight info

Callsign CAL111
Flight time N/A
Altitude 40000
Route YAMGA HKC A1 DRAKE DRAKE1A
Aircraft A359/H-SDE2E3GHIJ3J4J5LM1ORWXY/LB1D1

Departure

Time 2026-02-20 05:28
Airport Fukuoka Airport (RJFF)

Arrival

Time N/A
Airport Taiwan Taoyuan International Airport (RCTP)
Time Latitude Longitude Altitude Speed Heading
2026-02-20 05:24 33.58159 130.44968 33 ft 18 kts 149°
2026-02-20 05:24 33.58060 130.45036 34 ft 19 kts 149°
2026-02-20 05:24 33.57933 130.45123 36 ft 20 kts 150°
2026-02-20 05:24 33.57858 130.45175 36 ft 10 kts 149°
2026-02-20 05:25 33.57801 130.45253 36 ft 13 kts 92°
2026-02-20 05:25 33.57809 130.45332 36 ft 9 kts 94°
2026-02-20 05:25 33.57764 130.45404 32 ft 14 kts 145°
2026-02-20 05:25 33.57678 130.45467 28 ft 19 kts 150°
2026-02-20 05:26 33.57545 130.45558 23 ft 14 kts 149°
2026-02-20 05:26 33.57478 130.45610 21 ft 10 kts 136°
2026-02-20 05:26 33.57458 130.45686 20 ft 10 kts 80°
2026-02-20 05:26 33.57483 130.45761 20 ft 10 kts 47°
2026-02-20 05:27 33.57558 130.45770 22 ft 11 kts 338°
2026-02-20 05:27 33.57628 130.45726 23 ft 11 kts 330°
2026-02-20 05:27 33.57810 130.45601 32 ft 62 kts 330°
2026-02-20 05:27 33.58260 130.45296 39 ft 116 kts 330°
2026-02-20 05:28 33.60919 130.43489 1523 ft 156 kts 327°
2026-02-20 05:28 33.61883 130.42819 2091 ft 162 kts 326°
2026-02-20 05:29 33.62859 130.42134 2441 ft 175 kts 326°
2026-02-20 05:29 33.63950 130.41385 2805 ft 191 kts 331°
2026-02-20 05:29 33.65317 130.41128 3145 ft 214 kts
2026-02-20 05:29 33.66651 130.41829 3486 ft 237 kts 38°
2026-02-20 05:30 33.67694 130.43517 3963 ft 256 kts 59°
2026-02-20 05:30 33.68565 130.45470 4483 ft 272 kts 63°
2026-02-20 05:30 33.69033 130.47696 5137 ft 284 kts 91°
2026-02-20 05:30 33.68548 130.49948 6057 ft 284 kts 121°
2026-02-20 05:31 33.67853 130.51076 6584 ft 283 kts 138°
2026-02-20 05:31 33.64035 130.53734 8480 ft 290 kts 158°
2026-02-20 05:31 33.62043 130.54736 9417 ft 294 kts 161°
2026-02-20 05:32 33.60127 130.55659 10293 ft 299 kts 160°
2026-02-20 05:32 33.58165 130.56616 10940 ft 311 kts 160°
2026-02-20 05:32 33.56107 130.57636 11450 ft 328 kts 160°
2026-02-20 05:32 33.53977 130.58702 11928 ft 344 kts 160°
2026-02-20 05:33 33.52497 130.59442 12230 ft 355 kts 159°
2026-02-20 05:33 33.49388 130.61002 12785 ft 377 kts 159°
2026-02-20 05:33 33.46967 130.62221 13152 ft 393 kts 159°
2026-02-20 05:33 33.44360 130.63461 13695 ft 403 kts 162°
2026-02-20 05:34 33.41694 130.64508 14418 ft 406 kts 166°
2026-02-20 05:34 33.38958 130.65446 15089 ft 412 kts 167°
2026-02-20 05:34 33.36167 130.66400 15744 ft 417 kts 167°
2026-02-20 05:34 33.33349 130.67358 16337 ft 423 kts 168°
2026-02-20 05:35 33.30514 130.68317 16950 ft 428 kts 168°
2026-02-20 05:35 33.27598 130.69298 17522 ft 433 kts 168°
2026-02-20 05:35 33.24702 130.70276 18183 ft 435 kts 168°
2026-02-20 05:35 33.21774 130.71258 19011 ft 435 kts 168°
2026-02-20 05:36 33.18915 130.72221 19593 ft 439 kts 169°
2026-02-20 05:36 33.15892 130.73239 20297 ft 441 kts 169°
2026-02-20 05:36 33.12908 130.74188 20873 ft 442 kts 173°
2026-02-20 05:36 33.09864 130.74738 21454 ft 440 kts 181°
2026-02-20 05:37 33.06787 130.74789 22085 ft 435 kts 189°
2026-02-20 05:37 33.03777 130.74454 22714 ft 436 kts 192°
2026-02-20 05:37 33.00735 130.74071 23262 ft 439 kts 193°
2026-02-20 05:37 32.97721 130.73685 23841 ft 441 kts 193°
2026-02-20 05:38 32.94723 130.73306 24296 ft 446 kts 193°
2026-02-20 05:38 32.91522 130.72906 24616 ft 452 kts 193°
2026-02-20 05:38 32.88390 130.72514 25050 ft 456 kts 192°
2026-02-20 05:38 32.85194 130.72127 25441 ft 459 kts 193°
2026-02-20 05:39 32.82101 130.71756 25927 ft 459 kts 193°
2026-02-20 05:39 32.78876 130.71370 26391 ft 460 kts 193°
2026-02-20 05:39 32.75700 130.70985 26826 ft 462 kts 193°
2026-02-20 05:39 32.72492 130.70596 27175 ft 464 kts 193°
2026-02-20 05:40 32.69347 130.70218 27501 ft 465 kts 194°
2026-02-20 05:40 32.66062 130.69826 27860 ft 467 kts 194°
2026-02-20 05:40 32.62823 130.69434 28235 ft 468 kts 194°
2026-02-20 05:40 32.59610 130.69045 28574 ft 469 kts 195°
2026-02-20 05:41 32.56426 130.68655 28942 ft 470 kts 194°
2026-02-20 05:41 32.53092 130.68249 29160 ft 472 kts 195°
2026-02-20 05:41 32.49863 130.67859 29587 ft 471 kts 194°
2026-02-20 05:41 32.46594 130.67464 29727 ft 473 kts 195°
2026-02-20 05:42 32.43311 130.67078 30063 ft 470 kts 195°
2026-02-20 05:42 32.40048 130.66692 30351 ft 469 kts 196°
2026-02-20 05:42 32.36809 130.66303 30553 ft 470 kts 197°
2026-02-20 05:42 32.33562 130.65907 30955 ft 469 kts 197°
2026-02-20 05:43 32.30274 130.65512 31200 ft 466 kts 197°
2026-02-20 05:43 32.27068 130.65138 31357 ft 463 kts 198°
2026-02-20 05:43 32.23866 130.64763 31867 ft 456 kts 198°
2026-02-20 05:44 32.17565 130.64002 32379 ft 452 kts 200°
2026-02-20 05:44 32.14432 130.63621 32666 ft 450 kts 199°
2026-02-20 05:44 32.11325 130.63248 32997 ft 446 kts 201°
2026-02-20 05:44 32.08225 130.62875 33688 ft 440 kts 200°
2026-02-20 05:45 32.05207 130.62506 33969 ft 440 kts 200°
2026-02-20 05:45 32.02133 130.62135 34225 ft 440 kts 200°
2026-02-20 05:45 31.99107 130.61772 34705 ft 437 kts 200°
2026-02-20 05:45 31.96075 130.61406 34993 ft 437 kts 200°
2026-02-20 05:46 31.89949 130.60671 35350 ft 439 kts 202°
2026-02-20 05:46 31.86912 130.60316 35679 ft 437 kts 201°
2026-02-20 05:46 31.83848 130.59958 35967 ft 435 kts 201°
2026-02-20 05:47 31.80849 130.59601 36301 ft 430 kts 204°
2026-02-20 05:47 31.77955 130.58983 36537 ft 416 kts 208°
2026-02-20 05:47 31.75382 130.58098 36837 ft 403 kts 214°
2026-02-20 05:47 31.72642 130.56792 37176 ft 390 kts 219°
2026-02-20 05:48 31.70259 130.55302 37364 ft 382 kts 224°
2026-02-20 05:48 31.68262 130.53754 37429 ft 377 kts 227°
2026-02-20 05:48 31.66092 130.51718 37564 ft 371 kts 233°
2026-02-20 05:48 31.64271 130.49632 37679 ft 365 kts 237°
2026-02-20 05:49 31.62633 130.47380 37840 ft 361 kts 240°
2026-02-20 05:49 31.61424 130.45590 37998 ft 361 kts 239°
2026-02-20 05:49 31.59597 130.42882 38129 ft 363 kts 239°
2026-02-20 05:49 31.58043 130.40562 38269 ft 364 kts 240°
2026-02-20 05:50 31.56465 130.38203 38371 ft 365 kts 241°
2026-02-20 05:50 31.54897 130.35837 38477 ft 366 kts 240°
2026-02-20 05:50 31.53328 130.33466 38607 ft 366 kts 240°
2026-02-20 05:50 31.51761 130.31107 38827 ft 367 kts 239°
2026-02-20 05:51 31.50223 130.28773 38958 ft 368 kts 239°
2026-02-20 05:51 31.48642 130.26381 39050 ft 369 kts 240°
2026-02-20 05:51 31.45464 130.21599 39215 ft 374 kts 240°
2026-02-20 05:52 31.43861 130.19174 39373 ft 373 kts 239°
2026-02-20 05:52 31.42280 130.16792 39507 ft 372 kts 239°
2026-02-20 05:52 31.40682 130.14406 39697 ft 372 kts 240°
2026-02-20 05:52 31.39087 130.12006 39777 ft 373 kts 241°
2026-02-20 05:53 31.35891 130.07155 39902 ft 376 kts 241°
2026-02-20 05:53 31.32671 130.02254 39928 ft 378 kts 239°
2026-02-20 05:54 31.31057 129.99805 40052 ft 378 kts 240°
2026-02-20 05:54 31.29463 129.97401 40116 ft 378 kts 240°
2026-02-20 05:54 31.26229 129.92532 40077 ft 378 kts 239°
2026-02-20 05:55 31.22983 129.87671 40134 ft 379 kts 240°
2026-02-20 05:55 31.19728 129.82793 40153 ft 379 kts 240°
2026-02-20 05:56 31.16507 129.77983 40106 ft 378 kts 241°
2026-02-20 05:56 31.13257 129.73135 40092 ft 377 kts 240°
2026-02-20 05:57 31.10027 129.68315 40120 ft 376 kts 240°
2026-02-20 05:57 31.06794 129.63515 40103 ft 376 kts 240°
2026-02-20 05:58 31.03572 129.58714 40108 ft 376 kts 239°
2026-02-20 05:58 31.00342 129.53917 40064 ft 377 kts 240°
2026-02-20 05:59 30.97094 129.49097 40132 ft 378 kts 240°
2026-02-20 05:59 30.93836 129.44267 40096 ft 376 kts 240°
2026-02-20 06:00 30.90607 129.39496 40105 ft 377 kts 240°
2026-02-20 06:00 30.87335 129.34682 40106 ft 376 kts 239°
2026-02-20 06:01 30.84107 129.29936 40112 ft 374 kts 240°
2026-02-20 06:01 30.80870 129.25156 40079 ft 375 kts 239°
2026-02-20 06:02 30.77599 129.20338 40102 ft 376 kts 240°
2026-02-20 06:02 30.74430 129.15541 40093 ft 373 kts 240°
2026-02-20 06:03 30.71306 129.10786 40102 ft 375 kts 241°
2026-02-20 06:03 30.68155 129.05991 40108 ft 375 kts 241°
2026-02-20 06:04 30.64991 129.01172 40093 ft 375 kts 241°
2026-02-20 06:04 30.61937 128.96533 40129 ft 375 kts 240°
2026-02-20 06:05 30.58966 128.92024 40093 ft 372 kts 240°